Regional Weather Roundup
Issued by NWS Little Rock, AR

Home | Current Version | Previous Version | Graphics & Text | Print | Product List | Glossary On
Versions: 1 2 3 4 5 6 7 8 9 10 11 12 13 14 15 16 17 18 19 20 21 22 23 24 25 26 27 28 29 30 31
000
ASUS44 KLZK 251505
RWRLZK

WEATHER ROUNDUP FOR ARKANSAS
NATIONAL WEATHER SERVICE LITTLE ROCK AR
1000 AM CDT THU MAY 25 2017

NOTE: "FAIR" INDICATES FEW OR NO CLOUDS BELOW 12,000 FEET WITH NO
SIGNIFICANT WEATHER AND/OR OBSTRUCTIONS TO VISIBILITY.

ARZ001-003-010-029-251600-
NORTHWEST ARKANSAS

CITY           SKY/WX    TMP DP  RH WIND       PRES   REMARKS
FAYETTEVILLE   SUNNY     65  48  54 S15       29.79S
FORT SMITH     SUNNY     66  54  65 NE9       29.78F
HARRISON       SUNNY     64  52  64 S8        29.81R
BENTONVILLE    SUNNY     64  48  55 S10       29.79F
ROGERS         SUNNY     65  50  58 S7        29.79F
HIGHFILL       SUNNY     65  49  56 S15       29.79S
SPRINGDALE     SUNNY     64  48  55 S10       29.81S
$$

ARZ004-005-016-251600-
NORTH CENTRAL ARKANSAS

CITY           SKY/WX    TMP DP  RH WIND       PRES   REMARKS
BATESVILLE     SUNNY     64  52  63 W6        29.81S
FLIPPIN        SUNNY     64  48  55 CALM      29.78F
MTN HOME       SUNNY     63  53  70 SW5       29.80S
$$

ARZ040-041-251600-
WEST CENTRAL ARKANSAS

CITY           SKY/WX    TMP DP  RH WIND       PRES   REMARKS
MENA           SUNNY     70  48  46 S6        29.82S
MOUNT IDA      SUNNY     68  44  42 VRB5      29.80F
$$

ARZ009-017-025-026-028-251600-
NORTHEAST ARKANSAS

CITY           SKY/WX    TMP DP  RH WIND       PRES   REMARKS
JONESBORO      SUNNY     66  53  63 NW8       29.80R
WALNUT RIDGE   SUNNY     64  52  63 W6        29.80S
BLYTHEVILLE    SUNNY     67  54  63 VRB7      29.79R
NW BLYTHEVILLE SUNNY     54  45  71 W12       29.79S
$$

ARZ022-023-033-042-044-251600-
CENTRAL ARKANSAS

CITY           SKY/WX    TMP DP  RH WIND       PRES   REMARKS
LITTLE ROCK    SUNNY     67  53  61 SW8       29.83R
N LITTLE ROCK    N/A     67  54  64 W3        29.83S
JACKSONVILLE   SUNNY     68  56  65 SW7       29.82S
CONWAY           N/A     66  52  59 CALM      29.81F
SEARCY         SUNNY     66  52  60 VRB3      29.84S
HOT SPRINGS    SUNNY     67  51  56 VRB3      29.83F
RUSSELLVILLE   SUNNY     64  53  67 S6        29.82S
CLINTON        FAIR      64  55  72 CALM      29.82
$$

ARZ036-251600-
EAST ARKANSAS

CITY           SKY/WX    TMP DP  RH WIND       PRES   REMARKS
WEST MEMPHIS   SUNNY     65  57  75 VRB7      29.81R
$$

ARZ050-053-066-070-073-251600-
SOUTHWEST ARKANSAS

CITY           SKY/WX    TMP DP  RH WIND       PRES   REMARKS
ARKADELPHIA    FAIR      67  54  63 S6        29.85S
CAMDEN         SUNNY     68  50  52 S5        29.86R
TEXARKANA      SUNNY     69  52  54 S9        29.83S
EL DORADO      SUNNY     69  51  52 S9        29.86S
DE QUEEN       SUNNY     69  51  52 S9        29.80F
$$

ARZ056-057-069-251600-
SOUTHEAST ARKANSAS

CITY           SKY/WX    TMP DP  RH WIND       PRES   REMARKS
PINE BLUFF     SUNNY     66  53  63 SW5       29.84S
STUTTGART      SUNNY     68  48  49 SW6       29.84S
MONTICELLO     SUNNY     70  52  52 SW6       29.85S

$$






USA.gov is the U.S. government's official web portal to all federal, state and local government web resources and services.